Regional Weather Roundup
Issued by NWS

Home | Current Version | Previous Version | Text Only | Print | Product List | Glossary Off
Versions: 1 2 3 4 5 6 7 8 9 10 11 12 13 14 15 16 17 18 19 20 21 22 23 24 25 26 27 28 29 30 31 32 33 34 35 36 37 38 39 40 41 42 43 44 45 46 47 48 49 50

000
ASUS43 KLOT 061521
RWRIL

ILLINOIS REGIONAL WEATHER ROUNDUP
NATIONAL WEATHER SERVICE CHICAGO/ROMEOVILLE IL
1000 AM CDT WED MAY 06 2015

NOTE: "FAIR" INDICATES FEW OR NO CLOUDS BELOW 12,000 FEET WITH NO
SIGNIFICANT WEATHER AND/OR OBSTRUCTIONS TO VISIBILITY.

* THESE STATIONS ARE NOT UNDER NWS QUALITY CONTROL. THEY ALSO MAY NOT
  REPORT WEATHER SUCH AS PRECIPITATION OR FOG.

ILZ001-002-007-009-015-016-024-061600-
NORTHWEST ILLINOIS

CITY           SKY/WX    TMP DP  RH WIND       PRES   REMARKS
MOLINE         MOSUNNY   68  60  75 SE6       30.12S
STERLING*      MOSUNNY   66  61  82 SE8       30.14F
SAVANNA*       CLOUDY    61  56  84 SE5       30.15S HAZE
$$

ILZ003-004-008-010-011-017-018-061600-
NORTH CENTRAL ILLINOIS

CITY           SKY/WX    TMP DP  RH WIND       PRES   REMARKS
ROCKFORD       CLOUDY    59  55  87 SE6       30.18S FOG
FREEPORT*      CLOUDY    55  55  99 SE7       30.18S FOG
ROCHELLE*      CLOUDY    60  59  96 SE7       30.17S FOG
DE KALB*       CLOUDY    56  56  98 SE9       30.18S FOG
PERU*          CLOUDY    60  60  99 SE5       30.17S FOG
$$

ILZ005-006-012>014-019>023-061600-
NORTHEAST ILLINOIS

CITY           SKY/WX    TMP DP  RH WIND       PRES   REMARKS
CHICAGO-OHARE  PTSUNNY   58  56  93 S6        30.17F FOG
CHICAGO-MIDWAY PTSUNNY   63  58  83 VRB5      30.18S FOG
AURORA         CLOUDY    63  57  81 SE6       30.17F HAZE
LANSING*       PTSUNNY   62  58  87 CALM      30.19S FOG
JOLIET*        CLOUDY    63  62  94 SE6       30.18S FOG
WAUKEGAN       CLOUDY    52  52 100 NE5       30.18F FOG
DUPAGE AIRPORT MOSUNNY   62  58  86 SE5       30.17S FOG
KANKAKEE*      MOSUNNY   68  63  85 SE7       30.18F HAZE
WHEELING       PTSUNNY   58  55  90 SE3       30.19S FOG
MORRIS*        CLOUDY    61  61  98 SE6       30.15F FOG
ROMEOVILLE*    CLOUDY    60  60 100 SE6       30.18S FOG
NORTHERLY ISL    N/A     53  52  96 CALM        N/A
$$

LMZ740>746-061600-
SOUTHERN LAKE MICHIGAN

STATION/POSITION SKY/WX   TEMP    WIND        PRES    VSBY  WAVE
                          AIR SEA DIR/SP/G                  HT/PER
                          (F)     (DEG/KT/KT) (MB)    (MI)  (FT/S)
HARRISON CRIB              50      70/  1/  2   N/A
BURNHAM HARBOR             52      50/  1/  2   N/A
CALUMET HARBOR             56      50/  4/  5   N/A
BURNS HARBOR               62     170/  5/  8 1022.7S
MICHIGAN CITY              64     120/  6/  9   N/A
MICHIGAN CITY 6N           58 52  140/  4/  4   N/A           0
ST. JOSEPH                 57 51  160/  4/  6   N/A           0
$$

ILZ025>027-034>036-040-047-049-050-058-095>099-061600-
WEST-CENTRAL ILLINOIS

CITY           SKY/WX    TMP DP  RH WIND       PRES   REMARKS
QUINCY         SUNNY     76  55  48 S16       30.09F
GALESBURG*     MOSUNNY   70  61  72 SE8       30.13S
MACOMB*        SUNNY     74  58  57 S14       30.13F
JACKSONVILLE*  SUNNY     80  56  42 S15G23    30.13S HX  80
PITTSFIELD*    SUNNY     78  55  45 S14G21    30.12F
$$

ILZ028>032-037-038-041>044-048-051>054-059>061-061600-
CENTRAL ILLINOIS

CITY           SKY/WX    TMP DP  RH WIND       PRES   REMARKS
PONTIAC        MOSUNNY   69  67  95 S5        30.18S
BLOOMINGTON    SUNNY     76  59  55 SW10      30.18S
DECATUR        SUNNY     79  54  41 SW14      30.17F
PEORIA         MOSUNNY   74  59  59 S10       30.15S
LACON*         CLOUDY    67  61  81 CALM      30.15F
LINCOLN*       MOSUNNY   79  55  44 SW8       30.14S
SPRINGFIELD    SUNNY     80  55  42 S10       30.14F HX  80
TAYLORVILLE    SUNNY     79  54  41 SW9G18    30.16S
$$

ILZ033-039-045-046-055>057-062-063-061600-
EAST-CENTRAL ILLINOIS

CITY           SKY/WX    TMP DP  RH WIND       PRES   REMARKS
CHAMPAIGN      MOSUNNY   81  52  36 SW13      30.18S HX  80
DANVILLE*      PTSUNNY   77  56  48 SW8       30.16F
RANTOUL*       MOSUNNY   77  60  55 S6        30.18S
MATTOON        SUNNY     77  53  43 SW7       30.18S
PARIS*         SUNNY     81  52  36 W10       30.19F HX  80
$$

ILZ079-100>102-061600-
SOUTHWEST ILLINOIS

CITY           SKY/WX    TMP DP  RH WIND       PRES   REMARKS
ALTON          MOSUNNY   77  59  53 S12       30.15S
BELLEVILLE     SUNNY     78  59  53 VRB5      30.14S
CAHOKIA*       SUNNY     78  58  49 S9        30.13F
SPARTA*        SUNNY     74  59  59 S9        30.17S
$$

ILZ064>066-069>071-074>076-080>082-084>086-088>090-092>094-061600-
SOUTH-CENTRAL ILLINOIS

CITY           SKY/WX    TMP DP  RH WIND       PRES   REMARKS
CARBONDALE     MOSUNNY   78  57  48 S8        30.17S
CAIRO*         MOSUNNY   76  58  54 S6        30.17F
EFFINGHAM*     SUNNY     78  51  39 S6        30.20S
MARION         MOSUNNY   77  59  53 S9        30.19S
MT. VERNON     SUNNY    N/A N/A N/A SW9       30.18F
CENTRALIA*     SUNNY     84  53  33 S9        30.17S HX  83
SALEM*         SUNNY     81  53  37 S8        30.18S HX  80
METROPOLIS*    SUNNY     76  60  57 CALM      30.18S
$$

ILZ067-068-072-073-078-083-087-091-061600-
SOUTHEAST ILLINOIS

CITY           SKY/WX    TMP DP  RH WIND       PRES   REMARKS
LAWRENCEVILLE  SUNNY     79  56  45 SW6       30.20S HX  80
FLORA*         SUNNY     79  54  42 SW6       30.19S
FAIRFIELD*     SUNNY     78  56  46 S3        30.18S
HARRISBURG*    SUNNY     78  56  47 S3        30.20S
ROBINSON*      SUNNY     81  51  35 W7        30.20S HX  80
CARMI*         PTSUNNY   78  52  40 S7        30.19S
$$

ABBREVIATIONS USED IN REMARKS
   TC - TEMPERATURE IN CELSIUS
  WCI - WIND CHILL INDEX
   HX - HEAT INDEX
  VSB - VISIBILITY
$$




USA.gov is the U.S. government's official web portal to all federal, state and local government web resources and services.